TimeEDT,TemperatureF,Dew PointF,Humidity,Sea Level PressureIn,VisibilityMPH,Wind Direction,Wind SpeedMPH,Gust SpeedMPH,PrecipitationIn,Events,Conditions,WindDirDegrees,DateUTC
12:15 AM,37.4,33.8,87,30.29,10.0,Calm,Calm,-,N/A,,Clear,0,2013-03-29 04:15:00
12:35 AM,37.4,33.8,87,30.29,10.0,Calm,Calm,-,N/A,,Clear,0,2013-03-29 04:35:00
12:55 AM,37.4,33.8,87,30.29,10.0,Calm,Calm,-,N/A,,Clear,0,2013-03-29 04:55:00
1:15 AM,37.4,35.6,93,30.29,10.0,Calm,Calm,-,N/A,,Clear,0,2013-03-29 05:15:00
1:35 AM,37.4,35.6,93,30.29,10.0,Calm,Calm,-,N/A,,Clear,0,2013-03-29 05:35:00
1:55 AM,35.6,35.6,100,30.29,10.0,Calm,Calm,-,N/A,,Clear,0,2013-03-29 05:55:00
2:35 AM,35.6,35.6,100,30.29,10.0,Calm,Calm,-,N/A,,Clear,0,2013-03-29 06:35:00
2:55 AM,35.6,35.6,100,30.29,10.0,Calm,Calm,-,N/A,,Clear,0,2013-03-29 06:55:00
3:15 AM,35.6,35.6,100,30.30,10.0,Calm,Calm,-,N/A,,Clear,0,2013-03-29 07:15:00
3:35 AM,35.6,35.6,100,30.29,10.0,Calm,Calm,-,N/A,,Clear,0,2013-03-29 07:35:00
3:55 AM,35.6,35.6,100,30.29,10.0,Calm,Calm,-,N/A,,Clear,0,2013-03-29 07:55:00
4:15 AM,35.6,35.6,100,30.30,10.0,Calm,Calm,-,N/A,,Clear,0,2013-03-29 08:15:00
4:35 AM,35.6,35.6,100,30.30,9.0,Calm,Calm,-,N/A,,Clear,0,2013-03-29 08:35:00
4:55 AM,35.6,35.6,100,30.30,9.0,Calm,Calm,-,N/A,,Clear,0,2013-03-29 08:55:00
5:15 AM,35.6,33.8,93,30.31,8.0,Calm,Calm,-,N/A,,Clear,0,2013-03-29 09:15:00
5:35 AM,35.6,33.8,93,30.31,8.0,Calm,Calm,-,N/A,,Clear,0,2013-03-29 09:35:00
5:55 AM,33.8,33.8,100,30.31,9.0,Calm,Calm,-,N/A,,Clear,0,2013-03-29 09:55:00
6:15 AM,33.8,33.8,100,30.32,10.0,Calm,Calm,-,N/A,,Clear,0,2013-03-29 10:15:00
6:35 AM,33.8,33.8,100,30.32,9.0,Calm,Calm,-,N/A,,Clear,0,2013-03-29 10:35:00
6:55 AM,33.8,33.8,100,30.33,8.0,NNE,3.5,-,N/A,,Clear,20,2013-03-29 10:55:00
7:15 AM,35.6,33.8,93,30.33,5.0,Calm,Calm,-,N/A,,Clear,0,2013-03-29 11:15:00
7:35 AM,35.6,33.8,93,30.34,4.0,Calm,Calm,-,N/A,,Clear,0,2013-03-29 11:35:00
7:55 AM,35.6,33.8,93,30.34,4.0,Calm,Calm,-,N/A,,Clear,0,2013-03-29 11:55:00
8:15 AM,35.6,33.8,93,30.34,4.0,Calm,Calm,-,N/A,,Clear,0,2013-03-29 12:15:00
8:35 AM,39.2,33.8,81,30.35,5.0,Calm,Calm,-,N/A,,Haze,0,2013-03-29 12:35:00
8:55 AM,42.8,35.6,76,30.35,6.0,Calm,Calm,-,N/A,,Haze,0,2013-03-29 12:55:00
9:15 AM,46.4,35.6,66,30.35,7.0,Calm,Calm,-,N/A,,Clear,0,2013-03-29 13:15:00
9:35 AM,48.2,35.6,62,30.36,9.0,Calm,Calm,-,N/A,,Clear,0,2013-03-29 13:35:00
9:55 AM,51.8,35.6,54,30.36,10.0,Calm,Calm,-,N/A,,Clear,0,2013-03-29 13:55:00
10:15 AM,53.6,37.4,54,30.36,10.0,Calm,Calm,-,N/A,,Clear,0,2013-03-29 14:15:00
10:35 AM,55.4,33.8,44,30.36,10.0,East,3.5,-,N/A,,Clear,100,2013-03-29 14:35:00
10:55 AM,55.4,32.0,41,30.36,10.0,Calm,Calm,-,N/A,,Clear,0,2013-03-29 14:55:00
11:15 AM,57.2,32.0,38,30.36,10.0,ENE,4.6,-,N/A,,Clear,70,2013-03-29 15:15:00
11:35 AM,57.2,32.0,38,30.35,10.0,Calm,Calm,-,N/A,,Clear,0,2013-03-29 15:35:00
11:55 AM,57.2,32.0,38,30.35,10.0,NNE,3.5,-,N/A,,Clear,30,2013-03-29 15:55:00
12:15 PM,57.2,33.8,41,30.35,10.0,SSE,5.8,-,N/A,,Clear,150,2013-03-29 16:15:00
12:35 PM,57.2,33.8,41,30.34,10.0,SE,5.8,-,N/A,,Clear,130,2013-03-29 16:35:00
12:55 PM,59.0,33.8,39,30.34,10.0,ESE,4.6,-,N/A,,Clear,110,2013-03-29 16:55:00
1:15 PM,57.2,32.0,38,30.33,10.0,SE,8.1,-,N/A,,Clear,130,2013-03-29 17:15:00
1:35 PM,59.0,33.8,39,30.32,10.0,South,6.9,-,N/A,,Clear,170,2013-03-29 17:35:00
1:55 PM,60.8,33.8,36,30.31,10.0,SE,6.9,-,N/A,,Clear,140,2013-03-29 17:55:00
2:15 PM,60.8,33.8,36,30.30,10.0,SSE,8.1,-,N/A,,Clear,150,2013-03-29 18:15:00
2:35 PM,60.8,33.8,36,30.29,10.0,SE,8.1,-,N/A,,Clear,140,2013-03-29 18:35:00
2:55 PM,60.8,33.8,36,30.28,10.0,SSE,9.2,-,N/A,,Clear,150,2013-03-29 18:55:00
3:15 PM,60.8,35.6,39,30.27,10.0,SSE,10.4,-,N/A,,Clear,160,2013-03-29 19:15:00
3:35 PM,60.8,35.6,39,30.26,10.0,SE,12.7,18.4,N/A,,Clear,130,2013-03-29 19:35:00
3:55 PM,60.8,35.6,39,30.25,10.0,SSE,10.4,16.1,N/A,,Clear,160,2013-03-29 19:55:00
4:15 PM,60.8,33.8,36,30.25,10.0,South,9.2,-,N/A,,Clear,190,2013-03-29 20:15:00
4:35 PM,62.6,33.8,34,30.25,10.0,SSE,10.4,-,N/A,,Clear,160,2013-03-29 20:35:00
4:55 PM,60.8,33.8,36,30.24,10.0,SSE,10.4,16.1,N/A,,Clear,160,2013-03-29 20:55:00
5:15 PM,62.6,33.8,34,30.24,10.0,South,10.4,-,N/A,,Clear,190,2013-03-29 21:15:00
5:35 PM,60.8,33.8,36,30.24,10.0,SSE,10.4,-,N/A,,Clear,160,2013-03-29 21:35:00
5:55 PM,60.8,33.8,36,30.24,10.0,South,10.4,-,N/A,,Clear,170,2013-03-29 21:55:00
6:15 PM,60.8,33.8,36,30.24,10.0,South,9.2,-,N/A,,Clear,170,2013-03-29 22:15:00
6:35 PM,59.0,32.0,36,30.24,10.0,South,9.2,-,N/A,,Clear,190,2013-03-29 22:35:00
7:15 PM,57.2,33.8,41,30.24,10.0,South,5.8,-,N/A,,Clear,180,2013-03-29 23:15:00
7:35 PM,55.4,33.8,44,30.25,10.0,South,5.8,-,N/A,,Clear,190,2013-03-29 23:35:00
7:55 PM,53.6,35.6,51,30.25,10.0,Calm,Calm,-,N/A,,Clear,0,2013-03-29 23:55:00
8:15 PM,51.8,37.4,58,30.26,10.0,Calm,Calm,-,N/A,,Clear,0,2013-03-30 00:15:00
8:35 PM,50.0,39.2,66,30.25,10.0,Calm,Calm,-,N/A,,Clear,0,2013-03-30 00:35:00
9:15 PM,48.2,41.0,76,30.27,10.0,Calm,Calm,-,N/A,,Clear,0,2013-03-30 01:15:00
9:35 PM,46.4,41.0,81,30.26,10.0,Calm,Calm,-,N/A,,Clear,0,2013-03-30 01:35:00
9:55 PM,46.4,42.8,87,30.27,10.0,Calm,Calm,-,N/A,,Partly Cloudy,0,2013-03-30 01:55:00
10:15 PM,46.4,42.8,87,30.27,10.0,Calm,Calm,-,N/A,,Mostly Cloudy,0,2013-03-30 02:15:00
10:35 PM,46.4,42.8,87,30.27,10.0,Calm,Calm,-,N/A,,Scattered Clouds,0,2013-03-30 02:35:00
10:55 PM,46.4,42.8,87,30.27,10.0,Calm,Calm,-,N/A,,Mostly Cloudy,0,2013-03-30 02:55:00
11:15 PM,48.2,42.8,82,30.27,10.0,Calm,Calm,-,N/A,,Mostly Cloudy,0,2013-03-30 03:15:00
11:35 PM,48.2,44.6,87,30.27,10.0,Calm,Calm,-,N/A,,Mostly Cloudy,0,2013-03-30 03:35:00
11:55 PM,48.2,44.6,87,30.27,10.0,Calm,Calm,-,N/A,,Overcast,0,2013-03-30 03:55:00